Location: The Saddle
(36.8333°N, 80.3417°W)
Time: 15:28:00
(UTC-05:00)

Explorer 7 - Visible Passes

Search period start: 25 January 2022 00:00
Search period end: 04 February 2022 00:00
Orbit: 483 x 674 km, 50.3° (Epoch: 24 January)

Date Brightness Start Highest point End Pass type
(mag) Time Alt. Az. Time Alt. Az. Time Alt. Az.
31 Jan 9.5 06:04:52 10° S 06:07:25 17° SE 06:10:04 10° E visible
01 Feb 8.5 06:07:44 10° SSW 06:11:05 30° SE 06:14:32 10° ENE visible
02 Feb 7.3 06:11:08 10° SW 06:14:48 54° SE 06:18:39 10° ENE visible
03 Feb 9.8 04:38:56 10° SE 04:38:56 10° SE 04:39:27 10° ESE visible
03 Feb 6.5 06:15:15 13° SW 06:18:36 85° NW 06:22:32 10° NE visible
